Timestamp (UTC),Height (m)
2024-04-25T09:30:00Z,0.41
2024-04-25T09:45:00Z,0.48
2024-04-25T10:00:00Z,0.58
2024-04-25T10:15:00Z,0.71
2024-04-25T10:30:00Z,0.83
2024-04-25T10:45:00Z,0.93
2024-04-25T11:00:00Z,1.00
2024-04-25T11:15:00Z,1.03
2024-04-25T11:30:00Z,1.00
2024-04-25T11:45:00Z,0.92
2024-04-25T12:00:00Z,0.87
2024-04-25T12:15:00Z,0.85
2024-04-25T12:30:00Z,0.90
2024-04-25T12:45:00Z,0.93
2024-04-25T13:00:00Z,0.95
2024-04-25T13:15:00Z,0.95
2024-04-25T13:30:00Z,0.96
2024-04-25T13:45:00Z,0.94
2024-04-25T14:00:00Z,0.91
2024-04-25T14:15:00Z,0.84
2024-04-25T14:30:00Z,0.74
2024-04-25T14:45:00Z,0.56
2024-04-25T15:00:00Z,0.35
2024-04-25T15:15:00Z,0.12
2024-04-25T15:30:00Z,-0.14
2024-04-25T15:45:00Z,-0.38
2024-04-25T16:00:00Z,-0.61
2024-04-25T16:15:00Z,-0.79
2024-04-25T16:30:00Z,-0.92
2024-04-25T16:45:00Z,-0.98
2024-04-25T17:00:00Z,-0.99
2024-04-25T17:15:00Z,-0.94
2024-04-25T17:30:00Z,-0.87
2024-04-25T17:45:00Z,-0.76
2024-04-25T18:00:00Z,-0.62
2024-04-25T18:15:00Z,-0.45
2024-04-25T18:30:00Z,-0.33
2024-04-25T18:45:00Z,-0.19
2024-04-25T19:00:00Z,-0.09
2024-04-25T19:15:00Z,0.01
2024-04-25T19:30:00Z,0.10
2024-04-25T19:45:00Z,0.17
2024-04-25T20:00:00Z,0.22
2024-04-25T20:15:00Z,0.28
2024-04-25T20:30:00Z,0.31
2024-04-25T20:45:00Z,0.36
2024-04-25T21:00:00Z,0.43
2024-04-25T21:15:00Z,0.47
2024-04-25T21:30:00Z,0.54
2024-04-25T21:45:00Z,0.63
2024-04-25T22:00:00Z,0.73
2024-04-25T22:15:00Z,0.84
2024-04-25T22:30:00Z,0.98
2024-04-25T22:45:00Z,1.08
2024-04-25T23:00:00Z,1.22
2024-04-25T23:15:00Z,1.30
2024-04-25T23:30:00Z,1.31
2024-04-25T23:45:00Z,1.27
2024-04-26T00:00:00Z,1.20
2024-04-26T00:15:00Z,1.17
2024-04-26T00:30:00Z,1.17
2024-04-26T00:45:00Z,1.19
2024-04-26T01:00:00Z,1.21
2024-04-26T01:15:00Z,1.23
2024-04-26T01:30:00Z,1.22
2024-04-26T01:45:00Z,1.22
2024-04-26T02:00:00Z,1.19
2024-04-26T02:15:00Z,1.16
2024-04-26T02:30:00Z,1.07
2024-04-26T02:45:00Z,0.94
2024-04-26T03:00:00Z,0.76
2024-04-26T03:15:00Z,0.52
2024-04-26T03:30:00Z,0.26
2024-04-26T03:45:00Z,-0.02
2024-04-26T04:00:00Z,-0.27
2024-04-26T04:15:00Z,-0.53
2024-04-26T04:30:00Z,-0.71
2024-04-26T04:45:00Z,-0.84
2024-04-26T05:00:00Z,-0.93
2024-04-26T05:15:00Z,-0.95
2024-04-26T05:30:00Z,-0.92
2024-04-26T05:45:00Z,-0.87
2024-04-26T06:00:00Z,-0.73
2024-04-26T06:15:00Z,-0.59
2024-04-26T06:30:00Z,-0.48
2024-04-26T06:45:00Z,-0.33
2024-04-26T07:00:00Z,-0.22
2024-04-26T07:15:00Z,-0.09
2024-04-26T07:30:00Z,0.01
2024-04-26T07:45:00Z,0.08
2024-04-26T08:00:00Z,0.14
2024-04-26T08:15:00Z,0.17
2024-04-26T08:30:00Z,0.22
2024-04-26T08:45:00Z,0.24
2024-04-26T09:00:00Z,0.27
2024-04-26T09:15:00Z,0.30
2024-04-26T09:30:00Z,0.36
2024-04-26T09:45:00Z,0.43
2024-04-26T10:00:00Z,0.52
2024-04-26T10:15:00Z,0.60
2024-04-26T10:30:00Z,0.70
2024-04-26T10:45:00Z,0.81
2024-04-26T11:00:00Z,0.95
2024-04-26T11:15:00Z,1.06
2024-04-26T11:30:00Z,1.14
2024-04-26T11:45:00Z,1.16
2024-04-26T12:00:00Z,1.11
2024-04-26T12:15:00Z,1.06
2024-04-26T12:30:00Z,1.03
2024-04-26T12:45:00Z,1.00
2024-04-26T13:00:00Z,1.03
2024-04-26T13:15:00Z,1.06
2024-04-26T13:30:00Z,1.09
2024-04-26T13:45:00Z,1.10
2024-04-26T14:00:00Z,1.11
2024-04-26T14:15:00Z,1.10
2024-04-26T14:30:00Z,1.08
2024-04-26T14:45:00Z,1.02
2024-04-26T15:00:00Z,0.91
2024-04-26T15:15:00Z,0.74
2024-04-26T15:30:00Z,0.54
2024-04-26T15:45:00Z,0.29
2024-04-26T16:00:00Z,0.03
2024-04-26T16:15:00Z,-0.23
2024-04-26T16:30:00Z,-0.44
2024-04-26T16:45:00Z,-0.64
2024-04-26T17:00:00Z,-0.77
2024-04-26T17:15:00Z,-0.87
2024-04-26T17:30:00Z,-0.89
2024-04-26T17:45:00Z,-0.86
2024-04-26T18:00:00Z,-0.78
2024-04-26T18:15:00Z,-0.67
2024-04-26T18:30:00Z,-0.56
2024-04-26T18:45:00Z,-0.40
2024-04-26T19:00:00Z,-0.28
2024-04-26T19:15:00Z,-0.15
2024-04-26T19:30:00Z,-0.03
2024-04-26T19:45:00Z,0.08
2024-04-26T20:00:00Z,0.15
2024-04-26T20:15:00Z,0.21
2024-04-26T20:30:00Z,0.26
2024-04-26T20:45:00Z,0.32
2024-04-26T21:00:00Z,0.35
2024-04-26T21:15:00Z,0.37
2024-04-26T21:30:00Z,0.40
2024-04-26T21:45:00Z,0.44
2024-04-26T22:00:00Z,0.51
2024-04-26T22:15:00Z,0.56
2024-04-26T22:30:00Z,0.65
2024-04-26T22:45:00Z,0.75
2024-04-26T23:00:00Z,0.88
2024-04-26T23:15:00Z,0.99
2024-04-26T23:30:00Z,1.10
2024-04-26T23:45:00Z,1.18
2024-04-27T00:00:00Z,1.19
2024-04-27T00:15:00Z,1.18
2024-04-27T00:30:00Z,1.11
2024-04-27T00:45:00Z,1.05
2024-04-27T01:00:00Z,1.03
2024-04-27T01:15:00Z,1.06
2024-04-27T01:30:00Z,1.07
2024-04-27T01:45:00Z,1.08
2024-04-27T02:00:00Z,1.10
2024-04-27T02:15:00Z,1.09
2024-04-27T02:30:00Z,1.08
2024-04-27T02:45:00Z,1.04
2024-04-27T03:00:00Z,0.99
2024-04-27T03:15:00Z,0.87
2024-04-27T03:30:00Z,0.70
2024-04-27T03:45:00Z,0.49
2024-04-27T04:00:00Z,0.26
2024-04-27T04:15:00Z,0.01
2024-04-27T04:30:00Z,-0.24
2024-04-27T04:45:00Z,-0.47
2024-04-27T05:00:00Z,-0.66
2024-04-27T05:15:00Z,-0.79
2024-04-27T05:30:00Z,-0.88
2024-04-27T05:45:00Z,-0.90
2024-04-27T06:00:00Z,-0.88
2024-04-27T06:15:00Z,-0.81
2024-04-27T06:30:00Z,-0.71
2024-04-27T06:45:00Z,-0.59
2024-04-27T07:00:00Z,-0.48
2024-04-27T07:15:00Z,-0.35
2024-04-27T07:30:00Z,-0.22
2024-04-27T07:45:00Z,-0.12
2024-04-27T08:00:00Z,-0.02
2024-04-27T08:15:00Z,0.06
2024-04-27T08:30:00Z,0.10
2024-04-27T08:45:00Z,0.15
2024-04-27T09:00:00Z,0.18
2024-04-27T09:15:00Z,0.20
2024-04-27T09:30:00Z,0.25
2024-04-27T09:45:00Z,0.28
2024-04-27T10:00:00Z,0.33
2024-04-27T10:15:00Z,0.39
2024-04-27T10:30:00Z,0.48
2024-04-27T10:45:00Z,0.57
2024-04-27T11:00:00Z,0.67
2024-04-27T11:15:00Z,0.78
2024-04-27T11:30:00Z,0.89
2024-04-27T11:45:00Z,1.00
2024-04-27T12:00:00Z,1.08
2024-04-27T12:15:00Z,1.11
2024-04-27T12:30:00Z,1.09
2024-04-27T12:45:00Z,1.05
2024-04-27T13:00:00Z,1.01
2024-04-27T13:15:00Z,1.01
2024-04-27T13:30:00Z,1.02
2024-04-27T13:45:00Z,1.05
2024-04-27T14:00:00Z,1.08
2024-04-27T14:15:00Z,1.08
2024-04-27T14:30:00Z,1.09
2024-04-27T14:45:00Z,1.09
2024-04-27T15:00:00Z,1.06
2024-04-27T15:15:00Z,1.00
2024-04-27T15:30:00Z,0.90
2024-04-27T15:45:00Z,0.76
2024-04-27T16:00:00Z,0.58
2024-04-27T16:15:00Z,0.34
2024-04-27T16:30:00Z,0.11
2024-04-27T16:45:00Z,-0.12
2024-04-27T17:00:00Z,-0.36
2024-04-27T17:15:00Z,-0.53
2024-04-27T17:30:00Z,-0.66
2024-04-27T17:45:00Z,-0.75
2024-04-27T18:00:00Z,-0.75
2024-04-27T18:15:00Z,-0.74
2024-04-27T18:30:00Z,-0.68
2024-04-27T18:45:00Z,-0.60
2024-04-27T19:00:00Z,-0.48
2024-04-27T19:15:00Z,-0.36
2024-04-27T19:30:00Z,-0.24
2024-04-27T19:45:00Z,-0.15
2024-04-27T20:00:00Z,-0.07
2024-04-27T20:15:00Z,0.04
2024-04-27T20:30:00Z,0.13
2024-04-27T20:45:00Z,0.18
2024-04-27T21:00:00Z,0.22
2024-04-27T21:15:00Z,0.24
2024-04-27T21:30:00Z,0.26
2024-04-27T21:45:00Z,0.30
2024-04-27T22:00:00Z,0.33
2024-04-27T22:15:00Z,0.37
2024-04-27T22:30:00Z,0.42
2024-04-27T22:45:00Z,0.51
2024-04-27T23:00:00Z,0.59
2024-04-27T23:15:00Z,0.70
2024-04-27T23:30:00Z,0.81
2024-04-27T23:45:00Z,0.93
2024-04-28T00:00:00Z,1.02
2024-04-28T00:15:00Z,1.10
2024-04-28T00:30:00Z,1.15
2024-04-28T00:45:00Z,1.13
2024-04-28T01:00:00Z,1.09
2024-04-28T01:15:00Z,1.06
2024-04-28T01:30:00Z,1.06
2024-04-28T01:45:00Z,1.07
2024-04-28T02:00:00Z,1.09
2024-04-28T02:15:00Z,1.09
2024-04-28T02:30:00Z,1.09
2024-04-28T02:45:00Z,1.09
2024-04-28T03:00:00Z,1.08
2024-04-28T03:15:00Z,1.06
2024-04-28T03:30:00Z,0.99
2024-04-28T03:45:00Z,0.89
2024-04-28T04:00:00Z,0.72
2024-04-28T04:15:00Z,0.53
2024-04-28T04:30:00Z,0.29
2024-04-28T04:45:00Z,0.06
2024-04-28T05:00:00Z,-0.17
2024-04-28T05:15:00Z,-0.39
2024-04-28T05:30:00Z,-0.58
2024-04-28T05:45:00Z,-0.72
2024-04-28T06:00:00Z,-0.82
2024-04-28T06:15:00Z,-0.87
2024-04-28T06:30:00Z,-0.87
2024-04-28T06:45:00Z,-0.82
2024-04-28T07:00:00Z,-0.75
2024-04-28T07:15:00Z,-0.65
2024-04-28T07:30:00Z,-0.54
2024-04-28T07:45:00Z,-0.44
2024-04-28T08:00:00Z,-0.34
2024-04-28T08:15:00Z,-0.25
2024-04-28T08:30:00Z,-0.17
2024-04-28T08:45:00Z,-0.11
2024-04-28T09:00:00Z,-0.05
2024-04-28T09:15:00Z,-0.02
2024-04-28T09:30:00Z,0.01
2024-04-28T09:45:00Z,0.03
2024-04-28T10:00:00Z,0.05
2024-04-28T10:15:00Z,0.10
2024-04-28T10:30:00Z,0.14
2024-04-28T10:45:00Z,0.20
2024-04-28T11:00:00Z,0.28
2024-04-28T11:15:00Z,0.38
2024-04-28T11:30:00Z,0.48
2024-04-28T11:45:00Z,0.60
2024-04-28T12:00:00Z,0.73
2024-04-28T12:15:00Z,0.87
2024-04-28T12:30:00Z,0.98
2024-04-28T12:45:00Z,1.01
2024-04-28T13:00:00Z,1.03
2024-04-28T13:15:00Z,0.99
2024-04-28T13:30:00Z,0.96
2024-04-28T13:45:00Z,0.95
2024-04-28T14:00:00Z,0.96
2024-04-28T14:15:00Z,0.96
2024-04-28T14:30:00Z,0.95
2024-04-28T14:45:00Z,0.95
2024-04-28T15:00:00Z,0.93
2024-04-28T15:15:00Z,0.93
2024-04-28T15:30:00Z,0.92
2024-04-28T15:45:00Z,0.89
2024-04-28T16:00:00Z,0.80
2024-04-28T16:15:00Z,0.69
2024-04-28T16:30:00Z,0.55
2024-04-28T16:45:00Z,0.36
2024-04-28T17:00:00Z,0.15
2024-04-28T17:15:00Z,-0.05
2024-04-28T17:30:00Z,-0.24
2024-04-28T17:45:00Z,-0.40
2024-04-28T18:00:00Z,-0.52
2024-04-28T18:15:00Z,-0.60
2024-04-28T18:30:00Z,-0.65
2024-04-28T18:45:00Z,-0.65
2024-04-28T19:00:00Z,-0.62
2024-04-28T19:15:00Z,-0.55
2024-04-28T19:30:00Z,-0.49
2024-04-28T19:45:00Z,-0.40
2024-04-28T20:00:00Z,-0.32
2024-04-28T20:15:00Z,-0.23
2024-04-28T20:30:00Z,-0.13
2024-04-28T20:45:00Z,-0.07
2024-04-28T21:00:00Z,0.01
2024-04-28T21:15:00Z,0.05
2024-04-28T21:30:00Z,0.06
2024-04-28T21:45:00Z,0.09
2024-04-28T22:00:00Z,0.11
2024-04-28T22:15:00Z,0.15
2024-04-28T22:30:00Z,0.20
2024-04-28T22:45:00Z,0.25
2024-04-28T23:00:00Z,0.30
2024-04-28T23:15:00Z,0.37
2024-04-28T23:30:00Z,0.44
2024-04-28T23:45:00Z,0.54
2024-04-29T00:00:00Z,0.64
2024-04-29T00:15:00Z,0.74
2024-04-29T00:30:00Z,0.86
2024-04-29T00:45:00Z,0.94
2024-04-29T01:00:00Z,1.00
2024-04-29T01:15:00Z,1.02
2024-04-29T01:30:00Z,0.99
2024-04-29T01:45:00Z,0.97
2024-04-29T02:00:00Z,0.96
2024-04-29T02:15:00Z,0.96
2024-04-29T02:30:00Z,0.97
2024-04-29T02:45:00Z,0.97
2024-04-29T03:00:00Z,0.96
2024-04-29T03:15:00Z,0.95
2024-04-29T03:30:00Z,0.95
2024-04-29T03:45:00Z,0.92
2024-04-29T04:00:00Z,0.88
2024-04-29T04:15:00Z,0.79
2024-04-29T04:30:00Z,0.68
2024-04-29T04:45:00Z,0.52
2024-04-29T05:00:00Z,0.34
2024-04-29T05:15:00Z,0.13
2024-04-29T05:30:00Z,-0.08
2024-04-29T05:45:00Z,-0.27
2024-04-29T06:00:00Z,-0.44
2024-04-29T06:15:00Z,-0.59
2024-04-29T06:30:00Z,-0.69
2024-04-29T06:45:00Z,-0.74
2024-04-29T07:00:00Z,-0.78
2024-04-29T07:15:00Z,-0.75
2024-04-29T07:30:00Z,-0.71
2024-04-29T07:45:00Z,-0.63
2024-04-29T08:00:00Z,-0.56
2024-04-29T08:15:00Z,-0.45
2024-04-29T08:30:00Z,-0.36
2024-04-29T08:45:00Z,-0.26
2024-04-29T09:00:00Z,-0.19
2024-04-29T09:15:00Z,-0.13
2024-04-29T09:30:00Z,-0.08
2024-04-29T09:45:00Z,-0.06
2024-04-29T10:00:00Z,-0.05
2024-04-29T10:15:00Z,-0.03
2024-04-29T10:30:00Z,0.00
2024-04-29T10:45:00Z,0.03
2024-04-29T11:00:00Z,0.07
2024-04-29T11:15:00Z,0.13
2024-04-29T11:30:00Z,0.21
2024-04-29T11:45:00Z,0.27
2024-04-29T12:00:00Z,0.35
2024-04-29T12:15:00Z,0.46
2024-04-29T12:30:00Z,0.55
2024-04-29T12:45:00Z,0.67
2024-04-29T13:00:00Z,0.77
2024-04-29T13:15:00Z,0.84
2024-04-29T13:30:00Z,0.87
2024-04-29T13:45:00Z,0.88
2024-04-29T14:00:00Z,0.86
2024-04-29T14:15:00Z,0.85
2024-04-29T14:30:00Z,0.87
2024-04-29T14:45:00Z,0.89
2024-04-29T15:00:00Z,0.93
2024-04-29T15:15:00Z,0.95
2024-04-29T15:30:00Z,0.96
2024-04-29T15:45:00Z,0.96
2024-04-29T16:00:00Z,0.96
2024-04-29T16:15:00Z,0.95
2024-04-29T16:30:00Z,0.92
2024-04-29T16:45:00Z,0.83
2024-04-29T17:00:00Z,0.71
2024-04-29T17:15:00Z,0.55
2024-04-29T17:30:00Z,0.39
2024-04-29T17:45:00Z,0.21
2024-04-29T18:00:00Z,0.02
2024-04-29T18:15:00Z,-0.14
2024-04-29T18:30:00Z,-0.28
2024-04-29T18:45:00Z,-0.40
2024-04-29T19:00:00Z,-0.47
2024-04-29T19:15:00Z,-0.51
2024-04-29T19:30:00Z,-0.51
2024-04-29T19:45:00Z,-0.46
2024-04-29T20:00:00Z,-0.42
2024-04-29T20:15:00Z,-0.36
2024-04-29T20:30:00Z,-0.28
2024-04-29T20:45:00Z,-0.20
2024-04-29T21:00:00Z,-0.12
2024-04-29T21:15:00Z,-0.06
2024-04-29T21:30:00Z,0.00
2024-04-29T21:45:00Z,0.05
2024-04-29T22:00:00Z,0.09
2024-04-29T22:15:00Z,0.10
2024-04-29T22:30:00Z,0.11
2024-04-29T22:45:00Z,0.12
2024-04-29T23:00:00Z,0.16
2024-04-29T23:15:00Z,0.18
2024-04-29T23:30:00Z,0.24
2024-04-29T23:45:00Z,0.27
2024-04-30T00:00:00Z,0.33
2024-04-30T00:15:00Z,0.41
2024-04-30T00:30:00Z,0.50
2024-04-30T00:45:00Z,0.58
2024-04-30T01:00:00Z,0.69
2024-04-30T01:15:00Z,0.77
2024-04-30T01:30:00Z,0.84
2024-04-30T01:45:00Z,0.89
2024-04-30T02:00:00Z,0.92
2024-04-30T02:15:00Z,0.91
2024-04-30T02:30:00Z,0.91
2024-04-30T02:45:00Z,0.90
2024-04-30T03:00:00Z,0.91
2024-04-30T03:15:00Z,0.90
2024-04-30T03:30:00Z,0.92
2024-04-30T03:45:00Z,0.91
2024-04-30T04:00:00Z,0.90
2024-04-30T04:15:00Z,0.88
2024-04-30T04:30:00Z,0.86
2024-04-30T04:45:00Z,0.82
2024-04-30T05:00:00Z,0.75
2024-04-30T05:15:00Z,0.65
2024-04-30T05:30:00Z,0.52
2024-04-30T05:45:00Z,0.34
2024-04-30T06:00:00Z,0.16
2024-04-30T06:15:00Z,-0.00
2024-04-30T06:30:00Z,-0.15
2024-04-30T06:45:00Z,-0.27
2024-04-30T07:00:00Z,-0.40
2024-04-30T07:15:00Z,-0.50
2024-04-30T07:30:00Z,-0.54
2024-04-30T07:45:00Z,-0.58
2024-04-30T08:00:00Z,-0.57
2024-04-30T08:15:00Z,-0.52
2024-04-30T08:30:00Z,-0.47
2024-04-30T08:45:00Z,-0.41